Weather History for KCSM - August, 2013

Change the Weather History Date:

Friday, August 23, 2013

  Actual Average Record
Temperature  
Mean Temperature 85 °F -  
Max Temperature 98 °F 91 °F 106 °F (2010)
Min Temperature 72 °F 68 °F 63 °F (1997)
Cooling Degree Days 20    
Growing Degree Days 35 (Base 50)    
Moisture  
Dew Point 63 °F    
Average Humidity 52    
Maximum Humidity 82    
Minimum Humidity 24    
Precipitation  
Precipitation 0.00 in - - ()
Sea Level Pressure  
Sea Level Pressure 29.96 in    
Wind  
Wind Speed 10 mph (SSE)    
Max Wind Speed 16 mph    
Max Gust Speed 21 mph    
Visibility 10 miles    
Events      
Averages and records for this station are not official NWS values.
T = Trace of Precipitation, MM = Missing Value Source: NWS Daily Summary

Daily Weather History Graph

Daily Weather History Graph

Search for Another Location

Airport or City:

Trip Planner

Search our weather history database for the weather conditions in past years. The results will help you decide how hot, cold, wet, or windy it might be!

Date:

Astronomy

Aug. 23, 2013 Rise Set
Actual Time 7:02 AM CDT 8:15 PM CDT
Civil Twilight 6:36 AM CDT 8:41 PM CDT
Nautical Twilight 6:04 AM CDT 9:13 PM CDT
Astronomical Twilight 5:31 AM CDT 9:45 PM CDT
Moon 9:44 PM CDT (8/23) 9:50 AM CDT (8/23)
Length of Visible Light 14h 05m
Length of Day
13h 12m
Waning Gibbous, 91% of the Moon is Illuminated
Aug 23
Waning Gibbous
Aug 28
Last Quarter
Sep 5
New
Sep 12
First Quarter
Sep 19
Full

Hourly Weather History & Observations

Time (CDT) Temp. Heat Index Dew Point Humidity Pressure Visibility Wind Dir Wind Speed Gust Speed Precip Events Conditions
12:53 AM 77.0 °F - 66.9 °F 71% 29.98 in 10.0 mi ESE 9.2 mph - N/A   Clear
1:53 AM 75.9 °F - 68.0 °F 76% 29.98 in 10.0 mi ESE 9.2 mph - N/A   Clear
2:53 AM 73.9 °F - 68.0 °F 82% 29.98 in 10.0 mi SE 8.1 mph - N/A   Clear
3:53 AM 73.0 °F - 66.9 °F 81% 29.98 in 10.0 mi SSE 5.8 mph - N/A   Clear
4:53 AM 73.0 °F - 66.0 °F 79% 29.97 in 10.0 mi SSE 8.1 mph - N/A   Clear
5:53 AM 73.0 °F - 64.9 °F 76% 29.96 in 10.0 mi SSE 9.2 mph - N/A   Clear
6:53 AM 72.0 °F - 64.0 °F 76% 29.97 in 10.0 mi South 6.9 mph - N/A   Clear
7:53 AM 75.0 °F - 64.9 °F 71% 29.98 in 10.0 mi South 5.8 mph - N/A   Clear
8:53 AM 81.0 °F 82.5 °F 64.0 °F 56% 30.00 in 10.0 mi South 9.2 mph - N/A   Clear
9:53 AM 84.0 °F 85.4 °F 64.0 °F 51% 30.01 in 10.0 mi South 9.2 mph - N/A   Clear
10:53 AM 88.0 °F 88.7 °F 63.0 °F 43% 30.01 in 10.0 mi South 12.7 mph - N/A   Clear
11:53 AM 91.9 °F 92.9 °F 63.0 °F 38% 30.00 in 10.0 mi South 12.7 mph - N/A   Clear
12:53 PM 95.0 °F 94.0 °F 57.9 °F 29% 29.98 in 10.0 mi SSE 10.4 mph 18.4 mph N/A   Partly Cloudy
1:53 PM 95.0 °F 93.0 °F 55.0 °F 26% 29.97 in 10.0 mi South 5.8 mph - N/A   Partly Cloudy
2:53 PM 96.1 °F 94.5 °F 55.9 °F 26% 29.95 in 10.0 mi SE 12.7 mph 20.7 mph N/A   Partly Cloudy
3:53 PM 98.1 °F 96.4 °F 55.9 °F 24% 29.92 in 10.0 mi SSE 12.7 mph 20.7 mph N/A   Clear
4:53 PM 96.1 °F 94.8 °F 57.0 °F 27% 29.91 in 10.0 mi SE 11.5 mph 17.3 mph N/A   Clear
5:53 PM 96.1 °F 94.5 °F 55.9 °F 26% 29.90 in 10.0 mi SSE 10.4 mph - N/A   Clear
6:53 PM 95.0 °F 94.4 °F 59.0 °F 30% 29.89 in 10.0 mi ESE 10.4 mph - N/A   Scattered Clouds
7:53 PM 91.0 °F 90.5 °F 60.1 °F 35% 29.90 in 10.0 mi SE 12.7 mph - N/A   Clear
8:53 PM 87.1 °F 88.9 °F 64.9 °F 48% 29.93 in 10.0 mi SE 16.1 mph - N/A   Partly Cloudy
9:53 PM 82.9 °F 84.6 °F 64.9 °F 54% 29.96 in 10.0 mi SE 12.7 mph - N/A   Clear
10:53 PM 81.0 °F 83.0 °F 66.0 °F 60% 29.97 in 10.0 mi SE 13.8 mph - N/A   Clear
11:53 PM 80.1 °F 82.1 °F 66.0 °F 62% 29.97 in 10.0 mi SE 11.5 mph - N/A   Clear